Estación Meteorológica Peña el Pijo (Robertgarden) [ 07/15/20 06:01:10 CEST ]

Fecha Hora Presion(HPa) Temp (°C) Humedad % Rocio (°C) Viento ( m/s) Direccion Lluvia 1Hora(mm) Lluvia 24H(mm) LLuvia Total(mm)
2020-Feb-06 01:08:55 1014.300 - - - - N     39.88
2020-Feb-06 02:09:35 1014.000 - - - - N     39.88
2020-Feb-06 03:12:11 1013.600 - - - - N     39.88
2020-Feb-06 04:08:49 1013.200 - - - - N     39.88
2020-Feb-06 05:09:25 1013.300 - - - - N     39.88
2020-Feb-06 06:09:28 1013.200 - - - - N     39.88
2020-Feb-06 07:09:13 1013.000 - - - - N     39.88
2020-Feb-06 08:09:05 1013.400 - - - - N     39.88
2020-Feb-06 09:09:08 1013.700 - - - - N     39.88
2020-Feb-06 10:09:31 1013.700 - - - - N     39.88
2020-Feb-06 11:09:41 1013.500 - - - - N     39.88
2020-Feb-06 12:08:44 1013.500 - - - - N     39.88
2020-Feb-06 13:09:00 1012.800 - - - - N     39.88
2020-Feb-06 14:08:38 1011.800 - - - - N     39.88
2020-Feb-06 15:09:09 1011.000 - - - - N     39.88
2020-Feb-06 16:08:52 1011.000 - - - - N     39.88
2020-Feb-06 17:09:23 1010.900 - - - - N     39.88
2020-Feb-06 18:09:06 1011.200 - - - - N     39.88
2020-Feb-06 19:09:14 1011.800 - - - - N     39.88
2020-Feb-06 20:09:17 1012.000 - - - - N     39.88
2020-Feb-06 21:09:13 1012.400 - - - - N     39.88
2020-Feb-06 22:09:31 1012.400 - - - - N     39.88
2020-Feb-06 23:09:32 1012.500 - - - - N     39.88

Temperatura Máxima:    Temperatura Mínima:
Presión Máxima:1014.300 Hpa    Presión Mínima:1010.900 Hpa


Volver